sat.trackr.live / text

‹ back to catalog

STARLINK-35362

NORAD 65888 · 2025-224G

PAYLOAD ACTIVE UNKNOWN

§ Identity

Operator
Country
US
Launch date
2025-10-07
Launch site
AFETR
Launch vehicle
Mass (kg)
RCS (m²)

Purposes: comms

External: N2YO · Heavens-Above · Gunter

§ Orbital elements

Epoch: 2026-05-25T01:17:05.477568Z

Period
94.11 min
Inclination
53.1603°
Eccentricity
0.0001259
Mean motion
15.30198622 rev/d
Perigee alt
474.4 km
Apogee alt
476.1 km
Semi-major
6,853.4 km
B*
5.7374e-4
RAAN
16.8142°
Arg perigee
83.0918°
Mean anomaly
277.0226°
Rev number
3,651

§ Raw data

STARLINK-353621 65888U 25224G   26145.05353562  .00016671  00000+0  57374-3 0  99962 65888  53.1603  16.8142 0001259  83.0918 277.0226 15.30198622 36511

JSON: /api/v1/satellites/65888 · /tle

For live sub-satellite position, see the globe view (requires WebGL).

§ Visibility from observer

Set your observer location to see the next 7 days of passes ≥ 10°. The values pass through the URL so the page stays shareable.

No JS? Fill the form by hand. The geolocation button needs JavaScript.